AJ5TT Weather Reports


time (UTC)temp
C
wind
direction
speed
KPH
gust
KPH
rain 1hr
cm
rain 24hr
cm
rain mn
cm
humidity
%
barometer
mb
20260505160104 25 197 4.8 17.7 0.00 0.00 0.00 83 1010.8
20260505153108 26 212 6.4 16.1 0.00 0.00 0.00 80 1010.6
20260505151559 26 215 12.9 27.4 0.00 0.00 0.00 80 1010.3
20260505150113 26 243 8.0 20.9 0.00 0.00 0.00 81 1010.3
20260505140124 24 181 3.2 11.3 0.00 0.00 0.00 86 1010.6
20260505124606 23 157 3.2 11.3 0.00 0.00 0.00 88 1010.1
20260505123112 23 142 4.8 12.9 0.00 0.00 0.00 88 1010.0
20260505121555 23 132 3.2 11.3 0.00 0.00 0.00 88 1010.0
20260505120059 22 204 1.6 6.4 0.00 0.00 0.00 88 1010.2
20260505114605 22 205 3.2 8.0 0.00 0.00 0.00 88 1010.0
20260505113058 22 169 1.6 6.4 0.00 0.00 0.00 88 1009.7
20260505111601 22 217 1.6 8.0 0.00 0.00 0.00 88 1010.1
20260505101553 22 180 3.2 9.7 0.00 0.00 0.00 87 1010.0
20260505100104 22 200 1.6 8.0 0.00 0.00 0.00 87 1009.9
20260505094607 22 183 3.2 6.4 0.00 0.00 0.00 87 1010.0
20260505093056 22 221 1.6 6.4 0.00 0.00 0.00 87 1010.2
20260505091556 22 192 1.6 8.0 0.00 0.00 0.00 87 1010.1
20260505090110 22 215 4.8 11.3 0.00 0.00 0.00 87 1010.3
20260505084555 22 144 4.8 11.3 0.00 0.00 0.00 86 1010.1
20260505083107 22 213 3.2 17.7 0.00 0.00 0.00 85 1010.1
20260505081558 22 200 4.8 11.3 0.00 0.00 0.00 85 1010.2
20260505080056 22 226 3.2 9.7 0.00 0.00 0.00 85 1010.4
20260505074558 22 215 3.2 8.0 0.00 0.00 0.00 85 1010.4
20260505073100 22 193 3.2 12.9 0.00 0.00 0.00 85 1010.6
20260505071557 22 136 1.6 9.7 0.00 0.00 0.00 84 1010.8
20260505070056 22 198 3.2 9.7 0.00 0.00 0.00 84 1010.9
20260505064552 22 194 4.8 9.7 0.00 0.00 0.00 84 1011.2
20260505063059 22 192 4.8 12.9 0.00 0.00 0.00 85 1011.5
20260505061550 21 182 3.2 9.7 0.00 0.00 0.00 85 1011.4
20260505060058 21 203 1.6 12.9 0.00 0.00 0.00 84 1011.4
20260505054600 21 176 1.6 6.4 0.00 0.00 0.00 84 1011.6
20260505053055 21 196 1.6 6.4 0.00 0.00 0.00 84 1011.6
20260505051550 21 200 1.6 6.4 0.00 0.00 0.00 85 1011.7
20260505050126 21 195 1.6 6.4 0.00 0.00 0.00 85 1011.6
20260505041605 21 168 1.6 4.8 0.00 0.00 0.00 84 1012.1
20260505040100 21 167 1.6 4.8 0.00 0.00 0.00 83 1012.2
20260505034553 21 132 1.6 3.2 0.00 0.00 0.00 82 1012.3
20260505033052 21 121 1.6 3.2 0.00 0.00 0.00 82 1012.2
20260505031554 21 146 0.0 3.2 0.00 0.00 0.00 81 1012.3
20260505030104 21 171 1.6 4.8 0.00 0.00 0.00 80 1012.2
20260505024559 21 198 1.6 4.8 0.00 0.00 0.00 80 1012.4
20260505023056 21 192 1.6 6.4 0.00 0.00 0.00 79 1012.3
20260505021601 22 161 1.6 4.8 0.00 0.00 0.00 78 1012.2
20260505020058 22 199 1.6 8.0 0.00 0.00 0.00 77 1012.2
20260505014618 22 148 1.6 8.0 0.00 0.00 0.00 76 1012.1
20260505013058 22 195 3.2 9.7 0.00 0.00 0.00 75 1012.1
20260505011605 22 193 1.6 8.0 0.00 0.00 0.00 75 1012.1
20260505010056 23 201 3.2 9.7 0.00 0.00 0.00 74 1012.1
20260505004557 23 189 4.8 11.3 0.00 0.00 0.00 73 1011.8
20260505003053 23 131 4.8 16.1 0.00 0.00 0.00 72 1011.7
20260505001614 23 209 4.8 12.9 0.00 0.00 0.00 70 1011.7
20260505000135 24 178 4.8 29.0 0.00 0.00 0.00 69 1012.0
20260504234612 24 168 6.4 14.5 0.00 0.00 0.00 68 1011.9
20260504233105 25 257 6.4 16.1 0.00 0.00 0.00 67 1012.1
20260504231558 25 174 4.8 16.1 0.00 0.00 0.00 67 1012.4
20260504230057 25 238 8.0 17.7 0.00 0.00 0.00 68 1012.5
20260504224610 25 197 8.0 17.7 0.00 0.00 0.00 67 1012.6
20260504223058 25 173 4.8 20.9 0.00 0.00 0.00 67 1012.9
20260504221557 24 213 4.8 12.9 0.00 0.00 0.00 67 1013.1
20260504220100 24 206 6.4 12.9 0.00 0.00 0.00 67 1013.3
20260504214600 25 191 3.2 17.7 0.00 0.00 0.00 67 1013.4
20260504213126 25 187 8.0 19.3 0.00 0.00 0.00 64 1013.5
20260504211556 25 119 6.4 16.1 0.00 0.00 0.00 63 1013.4
20260504210055 25 61 6.4 16.1 0.00 0.00 0.00 63 1013.7
20260504204554 25 213 9.7 17.7 0.00 0.00 0.00 63 1013.8
20260504203112 26 181 6.4 20.9 0.00 0.00 0.00 62 1013.9
20260504201554 26 148 6.4 17.7 0.00 0.00 0.00 62 1014.3
20260504200052 26 216 4.8 11.3 0.00 0.00 0.00 61 1014.3
20260504194602 26 195 6.4 12.9 0.00 0.00 0.00 61 1014.4
20260504193109 27 86 3.2 14.5 0.00 0.00 0.00 60 1014.8
20260504191554 26 254 4.8 19.3 0.00 0.00 0.00 61 1014.8
20260504190109 27 217 4.8 16.1 0.00 0.00 0.00 60 1014.9
20260504184606 26 215 3.2 16.1 0.00 0.00 0.00 60 1014.9
20260504183056 26 141 4.8 16.1 0.00 0.00 0.00 60 1015.1
20260504181556 26 193 6.4 20.9 0.00 0.00 0.00 60 1015.5
20260504180052 26 221 9.7 14.5 0.00 0.00 0.00 61 1015.5
20260504174601 26 71 8.0 16.1 0.00 0.00 0.00 58 1015.6
20260504173056 26 151 11.3 22.5 0.00 0.00 0.00 60 1015.9
20260504171551 25 211 6.4 17.7 0.00 0.00 0.00 58 1016.0